Tracking 32941 objects as of 15-Jan-2026
HD Live streaming from Space Station
objects crossing your sky now

QIANFAN-106

Track QIANFAN-106 now!
10-day predictions
QIANFAN-106 is classified as:


NORAD ID: 66048
Int'l Code: 2025-233R
Perigee: 1,069.2 km
Apogee: 1,088.3 km
Inclination: 89.0 °
Period: 106.7 minutes
Semi major axis: 7449 km
RCS: Unknown
Launch date: October 17, 2025
Source: People's Republic of China (PRC)
Launch site: Taiyaun Space Center, China (TSC)
Your satellite tracking list
Your tracking list is empty




NASA's NSSDC Master Catalog

Two Line Element Set (TLE):
1 66048U 25233R   26015.10215390  .00000069  00000-0  90249-4 0  9997
2 66048  88.9916  58.6847 0012848 298.6704  61.3154 13.50172782 12520
Source of the keplerian elements: AFSPC